Change the Weather History Date:

Friday, February 3, 2012

  Actual Average Record
Temperature  
Mean Temperature 48 °F -  
Max Temperature 54 °F 35 °F 67 °F (1943)
Min Temperature 41 °F 24 °F 4 °F (1963)
Degree Days  
Heating Degree Days 18    
Moisture  
Dew Point 38 °F    
Average Humidity 74    
Maximum Humidity 93    
Minimum Humidity 51    
Precipitation  
Precipitation 0.41 in - - ()
Sea Level Pressure  
Sea Level Pressure 30.24 in    
Wind  
Wind Speed 7 mph (ESE)    
Max Wind Speed 14 mph    
Max Gust Speed 21 mph    
Visibility 8 miles    
Events Rain    
Averages and records for this station are not official NWS values.
T = Trace of Precipitation, MM = Missing Value Source: NWS Daily Summary

Daily Weather History Graph

Daily Weather History Graph

Search for Another Location

Airport or City:

Trip Planner

Search our weather history database for the weather conditions in past years. The results will help you decide how hot, cold, wet, or windy it might be!

Date:

Astronomy

Feb. 03, 2012 Rise Set
Actual Time 7:04 AM CST 5:24 PM CST
Civil Twilight 6:36 AM CST 5:52 PM CST
Nautical Twilight 6:05 AM CST 6:24 PM CST
Astronomical Twilight 5:34 AM CST 6:55 PM CST
Moon 1:27 PM CST (2/3) 3:39 AM CST (2/3)
Length of Visible Light 11h 15m
Length of Day
10h 19m
Waxing Gibbous, 82% of the Moon is Illuminated
Feb 3
Waxing Gibbous
Feb 7
Full
Feb 14
Last Quarter
Feb 21
New
Feb 29
First Quarter

Hourly Weather History & Observations

Time (CST) Temp. Windchill Dew Point Humidity Pressure Visibility Wind Dir Wind Speed Gust Speed Precip Events Conditions
12:53 AM 43.0 °F 41.3 °F 34.0 °F 71% 30.32 in 10.0 mi SE 3.5 mph - N/A   Clear
1:53 AM 41.0 °F - 35.1 °F 79% 30.33 in 10.0 mi Calm Calm - N/A   Clear
2:53 AM 41.0 °F 39.0 °F 34.0 °F 76% 30.32 in 10.0 mi East 3.5 mph - N/A   Clear
3:53 AM 41.0 °F 38.0 °F 33.1 °F 73% 30.33 in 10.0 mi East 4.6 mph - N/A   Clear
4:53 AM 42.1 °F 38.4 °F 34.0 °F 73% 30.32 in 10.0 mi ESE 5.8 mph - N/A   Clear
5:53 AM 42.1 °F 37.7 °F 34.0 °F 73% 30.31 in 10.0 mi ESE 6.9 mph - N/A   Clear
6:53 AM 41.0 °F 36.4 °F 33.1 °F 73% 30.30 in 10.0 mi ESE 6.9 mph - N/A   Clear
7:53 AM 41.0 °F 39.0 °F 33.1 °F 73% 30.33 in 10.0 mi SE 3.5 mph - N/A   Clear
8:53 AM 45.0 °F 41.2 °F 36.0 °F 71% 30.32 in 10.0 mi East 6.9 mph - N/A   Clear
9:53 AM 46.0 °F 41.9 °F 35.1 °F 66% 30.32 in 10.0 mi ESE 8.1 mph - N/A   Clear
10:53 AM 50.0 °F - 37.9 °F 63% 30.30 in 10.0 mi SE 11.5 mph - N/A   Clear
11:53 AM 51.1 °F - 36.0 °F 56% 30.30 in 10.0 mi SE 11.5 mph - N/A   Overcast
12:53 PM 53.1 °F - 36.0 °F 52% 30.27 in 10.0 mi SE 11.5 mph - N/A   Overcast
1:53 PM 54.0 °F - 36.0 °F 51% 30.23 in 10.0 mi SE 11.5 mph - 0.00 in   Overcast
2:53 PM 54.0 °F - 35.1 °F 49% 30.20 in 10.0 mi ESE 10.4 mph - 0.00 in Rain Light Rain
3:53 PM 53.1 °F - 37.0 °F 55% 30.19 in 10.0 mi East 11.5 mph 20.7 mph 0.00 in   Overcast
4:53 PM 52.0 °F - 37.0 °F 57% 30.19 in 10.0 mi ESE 10.4 mph - N/A   Overcast
5:53 PM 50.0 °F - 37.9 °F 63% 30.19 in 10.0 mi SE 9.2 mph - 0.00 in Rain Light Rain
6:53 PM 46.0 °F 40.2 °F 42.1 °F 86% 30.18 in 4.0 mi ESE 12.7 mph - 0.06 in Rain Light Rain
7:53 PM 46.0 °F 41.9 °F 42.1 °F 86% 30.18 in 4.0 mi East 8.1 mph - 0.01 in Rain Light Rain
8:02 PM 46.4 °F 41.9 °F 42.8 °F 87% 30.17 in 4.0 mi ESE 9.2 mph - 0.03 in Rain Rain
8:18 PM 46.4 °F 40.7 °F 42.8 °F 87% 30.16 in 4.0 mi East 12.7 mph - 0.10 in Rain Rain
8:53 PM 46.0 °F 41.9 °F 44.1 °F 93% 30.16 in 4.0 mi East 8.1 mph - 0.13 in Rain Light Rain
9:53 PM 46.9 °F - 44.1 °F 90% 30.13 in 5.0 mi East 11.5 mph - 0.00 in   Overcast
10:38 PM 46.4 °F 41.9 °F 44.6 °F 93% 30.15 in 2.0 mi NNE 9.2 mph - 0.13 in Rain Rain
10:53 PM 46.0 °F 39.9 °F 44.1 °F 93% 30.14 in 2.5 mi NE 13.8 mph - 0.21 in Rain Rain
11:11 PM 46.4 °F 41.1 °F 44.6 °F 93% 30.15 in 3.0 mi NNE 11.5 mph - 0.10 in Rain Heavy Rain